Albion, NE

1:28 PM CST on December 09, 2019 (GMT -0600)
Albion Municipal

Weather History for KBVN - July, 2019

Change the Weather History Date:

Wednesday, July 17, 2019

  Actual Average (WUND) Record (WUND)
Temperature  
Mean Temperature 80 °F -  
Max Temperature 89 °F - - (-1)
Min Temperature 70 °F - - (-1)
Cooling Degree Days 14    
Growing Degree Days 30 (Base 50)    
Moisture  
Dew Point 74 °F    
Average Humidity 83    
Maximum Humidity 96    
Minimum Humidity 66    
Precipitation  
Precipitation 0.00 in - - ()
Sea Level Pressure  
Sea Level Pressure 29.81 in    
Wind  
Wind Speed 8 mph (East)    
Max Wind Speed 15 mph    
Max Gust Speed 24 mph    
Visibility 10 miles    
Events      
Averages and records for this station are not official NWS values.
T = Trace of Precipitation, MM = Missing Value Source: NWS Daily Summary

Daily Weather History Graph

Daily Weather History Graph

Search for Another Location

Airport or City:

Astronomy

Jul. 17, 2019 Rise Set
Actual Time 6:12 AM CDT 9:04 PM CDT
Civil Twilight 5:39 AM CDT 9:36 PM CDT
Nautical Twilight 4:57 AM CDT 10:18 PM CDT
Astronomical Twilight 4:09 AM CDT 11:06 PM CDT
Moon 9:53 PM CDT (7/17) 6:46 AM CDT (7/17)
Length of Visible Light 15h 57m
Length of Day
14h 51m
Full, 99% of the Moon is Illuminated
Jul 17
Full
Jul 24
Last Quarter
Jul 31
New
Aug 7
First Quarter
Aug 15
Full

Hourly Weather History & Observations

Time (CDT) Temp. Heat Index Dew Point Humidity Pressure Visibility Wind Dir Wind Speed Gust Speed Precip Events Conditions
12:15 AM 75.7 °F - 73.9 °F 94% 29.89 in 10.0 mi SE 5.8 mph - N/A   Clear
12:35 AM 75.7 °F - 74.1 °F 95% 29.89 in 7.0 mi SE 4.6 mph - N/A   Clear
12:55 AM 76.1 °F - 74.3 °F 94% 29.89 in 10.0 mi ESE 6.9 mph - N/A   Clear
1:15 AM 76.1 °F - 73.9 °F 93% 29.89 in 10.0 mi ESE 5.8 mph - N/A   Clear
1:35 AM 76.1 °F - 73.8 °F 92% 29.89 in 10.0 mi ESE 6.9 mph - N/A   Clear
1:55 AM 76.1 °F - 73.6 °F 92% 29.88 in 10.0 mi ESE 6.9 mph - N/A   Clear
2:15 AM 75.9 °F - 73.4 °F 92% 29.89 in 10.0 mi ESE 5.8 mph - N/A   Clear
2:35 AM 75.9 °F - 73.2 °F 91% 29.87 in 10.0 mi SE 4.6 mph - N/A   Clear
2:55 AM 75.4 °F - 72.9 °F 92% 29.86 in 10.0 mi East 6.9 mph - N/A   Clear
3:15 AM 74.8 °F - 72.7 °F 93% 29.85 in 10.0 mi East 6.9 mph - N/A   Clear
3:35 AM 74.7 °F - 72.5 °F 93% 29.84 in 10.0 mi ESE 5.8 mph - N/A   Clear
3:55 AM 74.7 °F - 72.5 °F 93% 29.82 in 10.0 mi ESE 6.9 mph - N/A   Clear
4:15 AM 73.9 °F - 72.5 °F 95% 29.80 in 10.0 mi SE 10.4 mph - N/A   Clear
4:35 AM 74.3 °F - 72.5 °F 94% 29.80 in 10.0 mi SE 9.2 mph - N/A   Clear
4:55 AM 74.3 °F - 72.5 °F 94% 29.79 in 10.0 mi SE 9.2 mph - N/A   Clear
5:15 AM 73.8 °F - 72.5 °F 96% 29.80 in 10.0 mi SE 8.1 mph - N/A   Clear
5:35 AM 73.9 °F - 72.5 °F 95% 29.81 in 10.0 mi SE 5.8 mph - N/A   Clear
5:55 AM 73.6 °F - 72.5 °F 96% 29.80 in 10.0 mi SE 8.1 mph - N/A   Clear
6:15 AM 73.6 °F - 72.3 °F 96% 29.78 in 10.0 mi SSE 9.2 mph - N/A   Clear
6:35 AM 73.4 °F - 72.1 °F 96% 29.79 in 10.0 mi SE 6.9 mph - N/A   Clear
6:55 AM 73.9 °F - 72.1 °F 94% 29.82 in 10.0 mi Calm Calm - N/A   Clear
7:15 AM 74.7 °F - 72.1 °F 92% 29.85 in 10.0 mi NNE 9.2 mph 24.2 mph N/A   Mostly Cloudy
7:35 AM 73.8 °F - 69.6 °F 87% 29.87 in 10.0 mi ENE 11.5 mph - N/A   Overcast
7:55 AM 70.5 °F - 66.2 °F 86% 29.88 in 10.0 mi NE 13.8 mph 19.6 mph N/A   Scattered Clouds
8:15 AM 70.3 °F - 66.0 °F 86% 29.88 in 10.0 mi ENE 11.5 mph 17.3 mph N/A   Clear
8:35 AM 70.9 °F - 66.0 °F 85% 29.87 in 10.0 mi NE 12.7 mph 18.4 mph N/A   Clear
8:55 AM 72.0 °F - 66.4 °F 83% 29.87 in 10.0 mi NE 12.7 mph 21.9 mph N/A   Scattered Clouds
9:15 AM 72.7 °F - 66.7 °F 82% 29.86 in 10.0 mi ENE 10.4 mph 19.6 mph N/A   Scattered Clouds
9:35 AM 73.4 °F - 66.6 °F 79% 29.87 in 10.0 mi ENE 11.5 mph 18.4 mph N/A   Mostly Cloudy
9:55 AM 74.1 °F - 67.5 °F 80% 29.87 in 10.0 mi East 9.2 mph - N/A   Overcast
10:15 AM 75.2 °F - 67.8 °F 78% 29.87 in 10.0 mi East 8.1 mph - N/A   Overcast
10:35 AM 76.1 °F - 68.4 °F 77% 29.87 in 10.0 mi ENE 9.2 mph - N/A   Overcast
10:55 AM 77.0 °F - 69.4 °F 77% 29.87 in 10.0 mi East 9.2 mph - N/A   Overcast
11:15 AM 78.8 °F - 70.5 °F 76% 29.87 in 10.0 mi NE 11.5 mph - N/A   Overcast
11:35 AM 78.6 °F - 70.0 °F 75% 29.86 in 10.0 mi NE 11.5 mph 17.3 mph N/A   Overcast
11:55 AM 80.1 °F 83.6 °F 71.2 °F 74% 29.86 in 10.0 mi East 11.5 mph 17.3 mph N/A   Mostly Cloudy
12:15 PM 80.6 °F 84.7 °F 72.0 °F 75% 29.85 in 10.0 mi ESE 15.0 mph 20.7 mph N/A   Scattered Clouds
12:35 PM 81.7 °F 86.9 °F 73.0 °F 75% 29.84 in 10.0 mi SE 11.5 mph 19.6 mph N/A   Scattered Clouds
12:55 PM 82.2 °F 87.8 °F 73.2 °F 74% 29.84 in 10.0 mi ESE 13.8 mph 18.4 mph N/A   Mostly Cloudy
1:15 PM 83.3 °F 90.2 °F 74.1 °F 74% 29.83 in 10.0 mi SE 15.0 mph 19.6 mph N/A   Overcast
1:35 PM 83.7 °F 91.0 °F 74.5 °F 74% 29.82 in 10.0 mi ESE 9.2 mph - N/A   Mostly Cloudy
1:55 PM 85.1 °F 92.2 °F 73.6 °F 68% 29.82 in 10.0 mi SE 9.2 mph - N/A   Scattered Clouds
2:15 PM 84.9 °F 92.1 °F 73.9 °F 69% 29.81 in 10.0 mi SE 10.4 mph 16.1 mph N/A   Scattered Clouds
2:35 PM 85.8 °F 94.2 °F 74.5 °F 69% 29.79 in 10.0 mi South 10.4 mph - N/A   Scattered Clouds
2:55 PM 86.0 °F 95.1 °F 75.4 °F 70% 29.78 in 10.0 mi ESE 10.4 mph - N/A   Scattered Clouds
3:15 PM 85.8 °F 95.1 °F 75.6 °F 71% 29.78 in 10.0 mi SSE 10.4 mph 16.1 mph N/A   Mostly Cloudy
3:35 PM 87.1 °F 98.3 °F 76.5 °F 71% 29.78 in 10.0 mi SE 11.5 mph 17.3 mph N/A   Mostly Cloudy
3:55 PM 86.2 °F 96.4 °F 76.1 °F 72% 29.78 in 10.0 mi SSE 9.2 mph 16.1 mph N/A   Mostly Cloudy
4:15 PM 86.2 °F 96.9 °F 76.5 °F 73% 29.79 in 10.0 mi SE 9.2 mph - N/A   Mostly Cloudy
4:35 PM 87.1 °F 99.3 °F 77.5 °F 73% 29.79 in 10.0 mi SE 8.1 mph - N/A   Overcast
4:55 PM 87.8 °F 100.8 °F 77.9 °F 72% 29.79 in 10.0 mi SSE 8.1 mph - N/A   Mostly Cloudy
5:15 PM 89.2 °F 101.2 °F 76.5 °F 66% 29.77 in 10.0 mi South 9.2 mph - N/A   Scattered Clouds
5:35 PM 87.8 °F 99.1 °F 76.3 °F 69% 29.76 in 10.0 mi SSE 5.8 mph - N/A   Clear
5:55 PM 86.5 °F 98.3 °F 77.5 °F 74% 29.77 in 10.0 mi West 4.6 mph - N/A   Clear
6:15 PM 86.9 °F 97.8 °F 76.3 °F 71% 29.77 in 10.0 mi Calm Calm - N/A   Clear
6:35 PM 86.4 °F 97.8 °F 77.4 °F 74% 29.77 in 10.0 mi Calm Calm - N/A   Clear
6:55 PM 85.8 °F 98.3 °F 78.1 °F 78% 29.77 in 10.0 mi NNW 3.5 mph - N/A   Clear
7:15 PM 85.3 °F 98.1 °F 78.8 °F 81% 29.76 in 10.0 mi North 3.5 mph - N/A   Clear
7:35 PM 86.9 °F 99.3 °F 77.9 °F 74% 29.74 in 10.0 mi ENE 4.6 mph - N/A   Clear
7:55 PM 84.7 °F 96.9 °F 78.8 °F 82% 29.72 in 10.0 mi East 4.6 mph - N/A   Clear
8:15 PM 84.6 °F 96.8 °F 78.8 °F 83% 29.72 in 10.0 mi ENE 5.8 mph - N/A   Clear
8:35 PM 83.8 °F 95.5 °F 78.8 °F 85% 29.71 in 10.0 mi East 4.6 mph - N/A   Clear
8:55 PM 83.1 °F 94.0 °F 78.8 °F 87% 29.72 in 10.0 mi Calm Calm - N/A   Clear
9:15 PM 81.9 °F 90.5 °F 78.1 °F 88% 29.72 in 10.0 mi NNW 8.1 mph - N/A   Clear
9:35 PM 81.3 °F 89.2 °F 77.7 °F 89% 29.73 in 10.0 mi North 5.8 mph - N/A   Clear
9:55 PM 81.1 °F 88.2 °F 77.0 °F 87% 29.74 in 10.0 mi North 5.8 mph - N/A   Clear
10:15 PM 80.6 °F 87.3 °F 77.4 °F 90% 29.74 in 10.0 mi NNE 6.9 mph - N/A   Clear
10:35 PM 80.4 °F 86.8 °F 77.4 °F 90% 29.73 in 10.0 mi NNE 6.9 mph - N/A   Clear
10:55 PM 80.6 °F 87.3 °F 77.4 °F 90% 29.72 in 10.0 mi NE 6.9 mph - N/A   Clear
11:15 PM 80.1 °F 86.0 °F 77.4 °F 91% 29.72 in 10.0 mi NE 6.9 mph - N/A   Clear
11:35 PM 79.7 °F - 77.4 °F 93% 29.72 in 10.0 mi ENE 5.8 mph - N/A   Clear
11:55 PM 79.0 °F - 77.4 °F 95% 29.73 in 7.0 mi North 3.5 mph - N/A   Clear